Flag for Finland Weather past 2 weeks in Pori, Finland

Now
52 °F

Clear.


Feels Like: 49 °F
Forecast: 52 / 73 °F
Wind: 7 mph from Northwest

Location: Pori Airport

Current Time: Jul 1, 2015 at 5:03:18 AM

Latest Report: Jul 1, 2015 at 4:20 AM


Visibility: 10 mi

Pressure: 30.12 "Hg

Humidity: 82%

Dew point: 46 °F

Location of PoriLocation

Historic Weather in Pori — Graph

°F

Pori temperature yesterday

Maximum temperature yesterday: 64 °F (at 11:20 AM)
Minimum temperature yesterday: 55 °F (at 10:50 PM)
Average temperature yesterday: 59 °F

Past Weeks' High & Low Weather Summary

 TemperatureHumidityPressure
High68 °F (Jun 23, 3:20 PM)100% (Jun 18, 10:50 PM)30.09 "Hg (Jun 18, 10:50 PM)
Low43 °F (Jun 27, 3:50 AM)40% (Jun 28, 5:20 PM)29.56 "Hg (Jun 24, 11:20 AM)
Average55 °F81%29.81 "Hg
* Reported Jun 16 3:20 AM — Jul 1 3:50 AM, Pori, Weather by CustomWeather, © 2015

Note: Actual official high and low records may vary slightly from our data, if they occured in-between our weather recording intervals... More about our weather records

Advertising

Pori weather history for previous 24 hours

 ConditionsComfort  
Time TempWeatherWind HumidityBarometerVisibility
3:50 AM
Wed, Jul 1
52 °FClear.9 mph82%30.09 "Hg10 mi
3:20 AM54 °FClear.8 mph77%30.09 "Hg10 mi
2:50 AM54 °FClear.8 mph82%30.09 "Hg10 mi
2:20 AM54 °FClear.9 mph82%30.09 "Hg10 mi
1:50 AM54 °FClear.9 mph82%30.07 "Hg10 mi
1:20 AM55 °FClear.10 mph82%30.07 "Hg10 mi
12:50 AM55 °FClear.9 mph82%30.07 "Hg10 mi
12:20 AM54 °FClear.7 mph88%30.04 "Hg10 mi
11:50 PM
Tue, Jun 30
55 °FSunny.10 mph82%30.04 "Hg10 mi
11:20 PM55 °FSunny.12 mph88%30.04 "Hg10 mi
10:50 PM55 °FSunny.10 mph82%30.04 "Hg10 mi
10:20 PM57 °FSunny.13 mph77%30.01 "Hg10 mi
9:50 PM57 °FSunny.14 mph82%30.01 "Hg10 mi
9:20 PM57 °FSunny.15 mph82%29.98 "Hg10 mi
8:50 PM59 °FSunny.17 mph77%29.98 "Hg10 mi
7:50 PM57 °FPassing clouds.16 mph82%29.98 "HgN/A
7:20 PM59 °FScattered clouds.16 mph82%29.98 "HgN/A
6:50 PM59 °FBroken clouds.16 mph82%29.98 "HgN/A
5:50 PM57 °FPartly sunny.16 mph88%29.95 "HgN/A
5:20 PM59 °FPartly sunny.17 mph82%29.95 "HgN/A
4:50 PM59 °FPartly sunny.15 mph82%29.95 "HgN/A
3:50 PM57 °FLow clouds.14 mph88%29.95 "HgN/A
3:20 PM59 °FLow clouds.14 mph82%29.95 "HgN/A
2:50 PM59 °FLow clouds.10 mph88%29.92 "HgN/A
2:20 PM57 °FLow clouds.13 mph88%29.92 "HgN/A
1:50 PM57 °FBroken clouds.14 mph94%29.92 "HgN/A
1:20 PM63 °FScattered clouds.12 mph83%29.92 "HgN/A
12:50 PM64 °FScattered clouds.12 mph73%29.92 "HgN/A
12:20 PM64 °FPartly sunny.10 mph73%29.92 "HgN/A
11:50 AM64 °FBroken clouds.8 mph78%29.92 "HgN/A
11:20 AM64 °FMostly cloudy.8 mph78%29.89 "HgN/A
10:50 AM63 °FBroken clouds.8 mph77%29.89 "HgN/A
10:20 AM63 °FPartly sunny.8 mph83%29.89 "HgN/A
9:50 AM63 °FPartly sunny.7 mph83%29.89 "HgN/A
9:20 AM61 °FPartly sunny.9 mph83%29.89 "HgN/A
8:50 AM61 °FPartly sunny.6 mph83%29.89 "HgN/A
8:20 AM61 °FPartly sunny.6 mph88%29.89 "HgN/A
7:50 AM59 °FPassing clouds.6 mph88%29.89 "HgN/A
7:20 AM59 °FScattered clouds.7 mph88%29.89 "HgN/A
6:50 AM57 °FPartly sunny.6 mph94%29.89 "HgN/A
6:20 AM57 °FPassing clouds.6 mph94%29.89 "HgN/A
5:50 AM57 °FMore clouds than sun.6 mph94%29.89 "HgN/A
5:20 AM57 °FPartly sunny.5 mph94%29.89 "HgN/A
Weather by CustomWeather, © 2015

See weather overviewHow to use our weather pages